Address 0xfa4332c9e184f7b06b9062c906664f2906b6953c 3

 

Overview

Balance:
10.05 MATIC

MATIC Value:
$20.25 (@ $2.02/MATIC)
Ad
Ad
Txn Hash Method
Block
From
To
Value [Txn Fee]
0x8fbaeec052a7b193eb4b9b2eb863d1f36bce5295a26edb135221d6fdd80587a3Transfer219885332021-11-30 21:47:194 days 21 hrs ago0xa586b081f65466f3482d679de5be6a3303c46c17 IN 0xfa4332c9e184f7b06b9062c906664f2906b6953c10.05 MATIC0.00063
0xcdb1d466391465cb5f12936b6fc2c74be7b8671fc30837615a6d5be352817cb3Transfer218751532021-11-27 21:33:107 days 22 hrs ago0xfa4332c9e184f7b06b9062c906664f2906b6953cOUT0xf09e030e4c8b25b5ae0423b58cd97a9b90b1117f7.846841689307231 MATIC0.000672
0x8466b57fd431d89e8759f7f141c8a7c8b2ec3c4a8909642bba8bbfdc50cd2e82Transfer218751192021-11-27 21:30:547 days 22 hrs ago0xfa4332c9e184f7b06b9062c906664f2906b6953cOUT 0xc2132d05d31c914a87c6611c10748aeb04b58e8f0 MATIC0.00253836
0x89dba2da21999078ecf37a005f50d9a9cf175509fd78263a037583263dfd283a0x7c025200218748082021-11-27 21:17:007 days 22 hrs ago0xfa4332c9e184f7b06b9062c906664f2906b6953cOUT 0x1111111254fb6c44bac0bed2854e76f90643097d0 MATIC0.0304274
0x5ca3ac66f2fc2acabc0299e981e2ccb4b3b4a6e6679c74902bbba1ec94a4bf82Send218698122021-11-27 18:16:038 days 1 hr ago0xfa4332c9e184f7b06b9062c906664f2906b6953cOUT Celer Network: cBridge 2.00 MATIC0.0021096
0x7d3a6f29cadbb209a0bb7aeb6da2bd200cf8c1ae6a9fec256de31ef0353109e4Approve218697592021-11-27 18:14:138 days 1 hr ago0xfa4332c9e184f7b06b9062c906664f2906b6953cOUT 0x7ceb23fd6bc0add59e62ac25578270cff1b9f6190 MATIC0.00140136
0x7c303aad5285cd7d96e55188a1c7cf100c50df7595e16fe47f5e761bb51c94780x7c025200218696972021-11-27 18:12:098 days 1 hr ago0xfa4332c9e184f7b06b9062c906664f2906b6953cOUT 0x1111111254fb6c44bac0bed2854e76f90643097d0 MATIC0.01648644
0x4f515861a94fd8af6b04c8d53de1a586186945369f189c18d7437296b99d09670x7c025200218695962021-11-27 18:08:398 days 1 hr ago0xfa4332c9e184f7b06b9062c906664f2906b6953cOUT 0x1111111254fb6c44bac0bed2854e76f90643097d0 MATIC0.15707112
0xe7ba957a23d51d0b787d2f2f2e05fe5a3836247e2ef1bf66373d11fba2f515d40xd9459372218690592021-11-27 17:48:048 days 1 hr ago0xfa4332c9e184f7b06b9062c906664f2906b6953cOUT xPollinate: Transaction Manager 20 MATIC0.00402456
0x53a8b889a7c8a8392580bd09d71678d93b095d2b804cc523581e691096b4370eApprove218690442021-11-27 17:47:308 days 1 hr ago0xfa4332c9e184f7b06b9062c906664f2906b6953cOUT 0xc2132d05d31c914a87c6611c10748aeb04b58e8f0 MATIC0.00156216
0x7efcd27f833dfdf0d2eb9e4b3b61bbf1ab6297bbd8d6603d246d3972c63c442fIssue Exact Set ...218686822021-11-27 17:35:068 days 1 hr ago0xfa4332c9e184f7b06b9062c906664f2906b6953cOUT 0x85d284abc931e4ade71eee52341a0c83845f811c0 MATIC0.0959301
0x9c8cd903f85f9bb77c1effc90892d8017db3d61c147baa68ee0e85b2d180132cRedeem Exact Set...218685272021-11-27 17:29:448 days 2 hrs ago0xfa4332c9e184f7b06b9062c906664f2906b6953cOUT 0x85d284abc931e4ade71eee52341a0c83845f811c0 MATIC0.033762069
0xd371954e8a0a081c1f70151d7c224472f06adcc17da89e61729c5fe77e9899b3Approve218685082021-11-27 17:29:068 days 2 hrs ago0xfa4332c9e184f7b06b9062c906664f2906b6953cOUT Set: Food Maxi Index0 MATIC0.00458667
0x1de231a25b5198ced02e20bea12636cdabda9f4ea76981cf17a21fa606d0a9fbIssue Exact Set ...218684772021-11-27 17:28:008 days 2 hrs ago0xfa4332c9e184f7b06b9062c906664f2906b6953cOUT 0x85d284abc931e4ade71eee52341a0c83845f811c0 MATIC0.0407456
0x33ba89cc4df05cac2a2f42769d3305aea40873aa13f644b955f2aa5b12ef9d4aApprove218684452021-11-27 17:26:568 days 2 hrs ago0xfa4332c9e184f7b06b9062c906664f2906b6953cOUT 0xc2132d05d31c914a87c6611c10748aeb04b58e8f0 MATIC0.00517
0x5c3a4668cda0b68d1790176115f46615fd064b459ad403234d992e9e21d1a4f0Transfer218217652021-11-26 12:31:319 days 7 hrs ago0xfa4332c9e184f7b06b9062c906664f2906b6953cOUT0xbc0184d856f2218193854699c8028845c669b6fc48 MATIC0.000651
0x189eda484e92aca39950cb0e4c480f8694ea5eb8a61d0d09684a7c50e1185bae0x46c67b6d218217442021-11-26 12:30:459 days 7 hrs ago0xfa4332c9e184f7b06b9062c906664f2906b6953cOUT Paraswap v5: Augustus Swapper0 MATIC0.02191292
0x85346c011bbf787ca0164997b10301bdff31e44ffd6119ec4203620e993e8f35Transfer218192942021-11-26 10:58:079 days 8 hrs ago0xfa4332c9e184f7b06b9062c906664f2906b6953cOUT0xbc0184d856f2218193854699c8028845c669b6fc208 MATIC0.00063
0x8a223c77542a06de363bd7f3bbda6932c4b8a2ab3ee6d3e5b8c3d7c125b30e370x46c67b6d218192712021-11-26 10:57:219 days 8 hrs ago0xfa4332c9e184f7b06b9062c906664f2906b6953cOUT Paraswap v5: Augustus Swapper0 MATIC0.06722536
0xe70c77b694e56406bf9755c6acdd4535b4c2db6352424eded6d46b836f2c30cf0x54e3f31b218192452021-11-26 10:56:259 days 8 hrs ago0xfa4332c9e184f7b06b9062c906664f2906b6953cOUT Paraswap v5: Augustus Swapper0 MATIC0.00791319
0xf23f377f6058a10c7ec8d8f8f70f66ef2093f6f473bec0326a1646bdd51b72c8Transfer218174552021-11-26 9:50:179 days 9 hrs ago0xfa4332c9e184f7b06b9062c906664f2906b6953cOUT0xbc0184d856f2218193854699c8028845c669b6fc570 MATIC0.00063
0xa0880e3e5cd5622fd0ce6d0dda1ea932abf5b6f47e13576da465755ca5eb24d30x7c025200218174252021-11-26 9:49:179 days 9 hrs ago0xfa4332c9e184f7b06b9062c906664f2906b6953cOUT 0x1111111254fb6c44bac0bed2854e76f90643097d0 MATIC0.057036
0x680fdc4b2e438be05937ba23e01e7a91c2965c050a84e5476251ce88bc1838b70x7c025200218136902021-11-26 7:26:569 days 12 hrs ago0xfa4332c9e184f7b06b9062c906664f2906b6953cOUT 0x1111111254fb6c44bac0bed2854e76f90643097d0 MATIC0.016446672
0xcf776eacb31807323289d48aeacbaf829c3f04c357364a129ffeed937c0649bcTransfer217986342021-11-25 21:33:589 days 22 hrs ago0xfa4332c9e184f7b06b9062c906664f2906b6953cOUT 0xc2132d05d31c914a87c6611c10748aeb04b58e8f0 MATIC0.00120582
0x403f810db0e356ee8a7baab13713bb205728e786e5b292fc42b7db7fd5c07006Transfer217962532021-11-25 20:05:449 days 23 hrs ago0xfa4332c9e184f7b06b9062c906664f2906b6953cOUT0xbc445afce3a7c6d0c4e794462d44ddce646a411c1 MATIC0.00063
[ Download CSV Export 
Latest 8 internal transactions
Parent Txn Hash Block From To Value
0x89dba2da21999078ecf37a005f50d9a9cf175509fd78263a037583263dfd283a218748082021-11-27 21:17:007 days 22 hrs ago 0x1111111254fb6c44bac0bed2854e76f90643097d0xfa4332c9e184f7b06b9062c906664f2906b6953c6.840097525137255944 MATIC
0x189eda484e92aca39950cb0e4c480f8694ea5eb8a61d0d09684a7c50e1185bae218217442021-11-26 12:30:459 days 7 hrs ago Paraswap v5: Augustus Swapper0xfa4332c9e184f7b06b9062c906664f2906b6953c43.810455016481264477 MATIC
0x8a223c77542a06de363bd7f3bbda6932c4b8a2ab3ee6d3e5b8c3d7c125b30e37218192712021-11-26 10:57:219 days 8 hrs ago Paraswap v5: Augustus Swapper0xfa4332c9e184f7b06b9062c906664f2906b6953c207.666845109536539765 MATIC
0xa0880e3e5cd5622fd0ce6d0dda1ea932abf5b6f47e13576da465755ca5eb24d3218174252021-11-26 9:49:179 days 9 hrs ago 0x1111111254fb6c44bac0bed2854e76f90643097d0xfa4332c9e184f7b06b9062c906664f2906b6953c570.6217756959474864 MATIC
0x8d60fce440138dddbea48a9d998df7e5102fb70d07a0fdb67498b8c095610497217942302021-11-25 18:53:1410 days 41 mins ago 0x1111111254fb6c44bac0bed2854e76f90643097d0xfa4332c9e184f7b06b9062c906664f2906b6953c13.259512943214374639 MATIC
0x8955a407d6d549fabf2625c70a5d6670a632c94bb01a3c63a83f1dd1ec89441e217932912021-11-25 18:16:4410 days 1 hr ago 0xdb6f1920a889355780af7570773609bd8cb1f4980xfa4332c9e184f7b06b9062c906664f2906b6953c0.528937392992279066 MATIC
0x94365c89d46200bbfd315a4f3714ce16c277e12c5d890902b41557cfc30f7e6e217932822021-11-25 18:16:2610 days 1 hr ago 0xdb6f1920a889355780af7570773609bd8cb1f4980xfa4332c9e184f7b06b9062c906664f2906b6953c0.529418881418161094 MATIC
0xffad179349d382173b9d7def0d12efd3358f44c0de09954a28c83aa8fb9ba7ec217750452021-11-25 7:00:4310 days 12 hrs ago 0xf2e4209afa4c3c9eaa3fb8e12eed25d8f328171c0xfa4332c9e184f7b06b9062c906664f2906b6953c0.559249610938742803 MATIC
[ Download CSV Export 
Loading

Contract Name:
0 MATIC

Compiler Version
0

Optimization Enabled:
0 MATIC

Other Settings:
-NA-
Block Transaction Gas Used Reward
Age Block Fee Address BC Fee Address Voting Power Jailed Incoming
Block Uncle Number Difficulty Gas Used Reward
Loading
Loading
Make sure to use the "Vote Down" button for any spammy posts, and the "Vote Up" for interesting conversations.